This demonstration page uses our WeatherBlox Daily Observations layout. Learn more.

Left ArrowRight Arrow

44.89941, -97.11507

Hourly Observations for November 22, 2020

Temp ( °F °C ) Dew Point ( °F °C ) Humidity (%) Winds ( mph kmh ) Pressure ( in mb ) Visibility ( mi km ) Precip ( " mm )
12:53 am 00:53 Clear 34 1.1 32 0 92 92 S 7 11 30.21 1023 7 11 0.00 0.00
1:53 am 01:53 Clear with Mist and Fog 31 -0.6 30 -1.1 96 96 SSW 7 11 30.19 1022 6 10 0.00 0.00
2:53 am 02:53 Clear with Mist and Fog 29 -1.7 28 -2.2 96 96 SW 7 11 30.19 1022 6 10 0.00 0.00
3:53 am 03:53 Clear with Mist and Fog 29 -1.7 28 -2.2 96 96 W 8 13 30.19 1022 6 10 0.00 0.00
4:53 am 04:53 Clear with Mist and Fog 30 -1.1 29 -1.7 96 96 W 9 15 30.20 1023 6 10 0.00 0.00
5:53 am 05:53 Clear 29 -1.7 27 -2.8 92 92 W 10 17 30.22 1023 8 13 0.00 0.00
6:53 am 06:53 Clear 28 -2.2 26 -3.3 92 92 W 13 20 30.25 1024 10 16 0.00 0.00
7:53 am 07:53 Sunny 28 -2.2 25 -3.9 88 88 WNW 9 15 30.25 1025 10 16 0.00 0.00
8:53 am 08:53 Sunny 30 -1.1 27 -2.8 88 88 WNW 9 15 30.27 1025 10 16 0.00 0.00
9:53 am 09:53 Sunny 31 -0.6 28 -2.2 89 89 WNW 13 20 30.27 1025 10 16 0.00 0.00
10:53 am 10:53 Mostly Cloudy 31 -0.6 28 -2.2 89 89 NW 15 24 30.30 1026 10 16 0.00 0.00
11:01 am 11:01 Cloudy 31 -0.6 29 -1.7 92 92 WNW 15 24 30.32 1027 10 16 0.00 0.00
11:53 am 11:53 Mostly Cloudy 34 1.1 30 -1.1 85 85 WNW 13 20 30.29 1026 10 16 0.00 0.00
12:00 pm 12:00 Mostly Cloudy 34 1.1 30 -1.1 85 85 WNW 16 26 30.31 1026 10 16 0.00 0.00
12:40 pm 12:40 Partly Cloudy 35 1.7 30 -1.1 82 82 W 13 20 30.29 1026 10 16 0.00 0.00
12:49 pm 12:49 Mostly Cloudy 34 1 28 -2 81 81 W 10 17 30.29 1026 10 16 0.00 0.00
12:53 pm 12:53 Partly Cloudy 34 1.1 29 -1.7 82 82 W 10 17 30.27 1025 10 16 0.00 0.00
1:53 pm 13:53 Sunny 38 3.3 30 -1.1 73 73 W 14 22 30.27 1025 10 16 0.00 0.00
2:53 pm 14:53 Sunny 38 3.3 28 -2.2 68 68 WNW 14 22 30.27 1025 10 16 0.00 0.00
3:53 pm 15:53 Sunny 38 3.3 28 -2.2 68 68 WNW 13 20 30.28 1025 10 16 0.00 0.00
4:53 pm 16:53 Sunny 34 1.1 26 -3.3 73 73 NW 9 15 30.30 1026 10 16 0.00 0.00
5:53 pm 17:53 Clear 32 0 24 -4.4 73 73 NW 7 11 30.31 1026 10 16 0.00 0.00
6:53 pm 18:53 Clear 30 -1.1 23 -5 75 75 WNW 6 9 30.31 1027 10 16 0.00 0.00
7:53 pm 19:53 Clear 27 -2.8 23 -5 85 85 NW 3 6 30.32 1027 10 16 0.00 0.00
8:53 pm 20:53 Clear 24 -4.4 21 -6.1 88 88 S 3 6 30.33 1027 10 16 0.00 0.00
9:53 pm 21:53 Clear 23 -5 21 -6.1 92 92 Calm 30.34 1027 10 16 0.00 0.00
10:53 pm 22:53 Clear 22 -5.6 20 -6.7 92 92 Calm 30.34 1028 10 16 0.00 0.00
11:53 pm 23:53 Clear 23 -5 20 -6.7 88 88 E 3 6 30.32 1027 10 16 0.00 0.00

Powered by AerisWeather